Location: Unspecified
(0.0000°N, 0.0000°E)
Time: 01:25:24
(UTC+00:00)

Courier 1B - Pass Details

Date: 20 November 2019
Orbit: 963 x 1209 km, 28.3° (Epoch: 11 December)

Event Time Altitude Azimuth Distance (km) Brightness Sun altitude
Rises 22:31:47 0° 218° (SW) 4,098 11.1 -63.2°
Enters shadow 22:32:36 - 215° (SW) 3,870 11.0 -63.3°
Reaches altitude 10° 22:35:27 10° 203° (SSW) 3,144 - -63.8°
Maximum altitude 22:41:13 22° 155° (SSE) 2,363 - -64.7°
Drops below altitude 10° 22:46:56 10° 108° (ESE) 3,111 - -65.5°
Sets 22:50:30 0° 93° (E) 4,046 - -66.0°
